Regional Weather Roundup
Issued by NWS Upton, NY

Current Version | Previous Version | Graphics & Text | Print | Product List | Glossary Off
Versions: 1 2 3 4 5 6 7 8 9 10 11 12 13 14 15 16 17 18 19 20 21 22 23 24 25 26 27 28 29 30 31 32 33 34 35 36 37 38 39 40 41 42 43 44 45 46 47 48 49

000
ASUS41 KOKX 270405
RWROKX

REGIONAL WEATHER ROUNDUP
NATIONAL WEATHER SERVICE NEW YORK NY
1100 PM EST THU FEB 26 2015

NOTE: "FAIR" INDICATES FEW OR NO CLOUDS BELOW 12,000 FEET WITH NO
SIGNIFICANT WEATHER AND/OR OBSTRUCTIONS TO VISIBILITY.

NYZ071-072-176-178-NJZ106-104-270500-
NEW YORK CITY METRO AREA


CITY           SKY/WX    TMP DP  RH WIND       PRES   REMARKS
CENTRAL PARK   PTCLDY    22   9  57 VRB3      30.15S
LAGUARDIA APRT MOCLDY    23  11  60 N5        30.14S WCI  17
KENNEDY INTL   MOCLDY    24  13  62 N8        30.14R WCI  15
NEWARK/LIBERTY MOCLDY    23  12  62 N8        30.15R WCI  14
BRNX BOT. GARD   N/A    N/A N/A N/A W3        30.13S
TETERBORO      PTCLDY    21   8  57 N8        30.14S WCI  11
$$

NYZ177-179-078>081-270500-
LONG ISLAND NEW YORK

CITY           SKY/WX    TMP DP  RH WIND       PRES   REMARKS
FARMINGDALE    PTCLDY    23  13  65 N6        30.13R WCI  16
ISLIP          MOCLDY    22  13  68 NW6       30.11R WCI  14
SHIRLEY        PTCLDY    20  11  68 CALM      30.13R
WESTHAMPTON    PTCLDY    17   9  70 CALM      30.13R
MONTAUK POINT    N/A     26  15  63 N5        30.13R WCI  20
$$

NYZ052-065-067-270500-
HUDSON VALLEY

CITY           SKY/WX    TMP DP  RH WIND       PRES   REMARKS
WHITE PLAINS   PTCLDY    17   5  59 NW7       30.10S WCI   8
NEWBURGH       CLOUDY    18  10  73 CALM      30.12R
MONTGOMERY     PTCLDY    10   5  80 CALM      30.12R
POUGHKEEPSIE   MOCLDY    15   5  64 CALM      30.14R
ALBANY         FLURRIES  12  -2  53 N10       30.17R WCI  -1
$$

NJZ001-105-106-008-010-013-015-019>022-104-270500-
NEW JERSEY

CITY           SKY/WX    TMP DP  RH WIND       PRES   REMARKS
NEWARK/LIBERTY MOCLDY    23  12  62 N8        30.15R WCI  14
TETERBORO      PTCLDY    21   8  57 N8        30.14S WCI  11
CALDWELL       PTCLDY    19   9  65 CALM      30.15R
MORRISTOWN     MOCLDY    19  12  73 CALM      30.15R
SOMERVILLE     MOCLDY    17  12  80 NW3       30.14R
SUSSEX         PTCLDY     9   6  88 CALM      30.13R
ANDOVER          N/A      8   5  87 CALM      30.13R
TRENTON        PTCLDY    23  12  62 NW5       30.13R WCI  17
MILLVILLE      CLEAR     16  13  88 CALM      30.14R
ATLANTIC CITY  PTCLDY    18  13  80 CALM      30.13R
WRIGHTSTOWN    PTCLDY    21  17  83 W2        30.11S
TOMS RIVER     PTCLDY    16  12  86 CALM      30.14S
BELMAR         PTCLDY    21  12  68 NW5       30.12S WCI  15
$$

PAZ047>061-062-071-270500-
EASTERN PENNSYLVANIA

CITY           SKY/WX    TMP DP  RH WIND       PRES   REMARKS
PHILADELPHIA   MOCLDY    27  15  61 NW3       30.15R
ALLENTOWN      MOCLDY    20  10  65 N3        30.13R
SCRANTON       CLOUDY    16   7  67 N7        30.12R WCI   6
$$

CTZ002-004>006-009-010-012-RIZ004-006-007-MAZ004-011-015-270500-
SOUTHERN NEW ENGLAND
 IN CT

CITY           SKY/WX    TMP DP  RH WIND       PRES   REMARKS
BRADLEY INTL   MOCLDY    20   5  52 W3        30.10S
HARTFORD       MOCLDY    21   9  59 CALM      30.12S
DANBURY        PTCLDY    13   2  61 SW3       30.12R
WTRBRY/OXFORD  PTCLDY    16   0  48 CALM      30.08S
BRIDGEPORT     PTCLDY    21  11  65 N6        30.13R WCI  13
MERIDEN        MOCLDY    18   8  65 NW3       30.12S
NEW HAVEN      PTCLDY    23  12  62 NW6       30.12R WCI  16
CHESTER        FAIR      21  12  68 CALM      30.09S
GROTON         CLOUDY    22  13  68 NW3       30.12R
WILLIMANTIC    MOCLDY    18   9  68 CALM      30.11R

 IN RI

CITY           SKY/WX    TMP DP  RH WIND       PRES   REMARKS
PROVIDENCE     CLOUDY    21  12  68 N3        30.11S
BLOCK ISLAND   CLOUDY    23  12  63 N6        30.09R WCI  16
WESTERLY       CLOUDY    21  14  74 CALM      30.12R

 IN MA

CITY           SKY/WX    TMP DP  RH WIND       PRES   REMARKS
BOSTON         CLOUDY    21   8  57 VRB3      30.12R
WORCESTER      CLOUDY    18  -2  41 N6        30.03S WCI  10
WESTFIELD      MOCLDY    19   5  54 CALM      30.10R
PROVINCETOWN   PTCLDY    25  12  58 N13       30.10R WCI  13
NANTUCKET      CLOUDY    25  15  66 N13       30.07R WCI  14
$$

ANZ330-335-338-340-345-350-353-355-270500-
COASTAL MARINE OBSERVATIONS


STATION/POSITION TIME  SKY/WX   TEMP    WIND        PRES    VSBY  WAVE
                                AIR SEA DIR/SP/G                  HT/PER
                 (UTC)          (F)     (DEG/KT/KT) (MB)    (MI)  (FT/S)
NY HARB ENTRANCE 0400            28 38  330/ 12/ 14 1020.2          3/ 7
4S FIRE IS       NOT AVBL
20S FIRE ISLAND  0300               36              1020.2          4/ 6
23SW MTP         0400                                 N/A           4/ 5
HUDSON CANYON    NOT AVBL
EXECUTION ROCKS  NOT AVBL
WESTERN LI SOUND NOT AVBL
CENTRAL LI SOUND NOT AVBL
EASTERN LI SOUND NOT AVBL
ROBBINS REEF     0400            24      10/  9/ 10 1019.3
$$


>>>>>>>>>>>>>>>>>>>>>>>>>>>> KEY <<<<<<<<<<<<<<<<<<<<<<<<<<<
>                                                          <
>     SKY/WX - SKY CONDITION/PRESENT WEATHER               <
>     TMP    - TEMPERATURE IN FAHRENHEIT                   <
>     DP     - DEWPOINT IN FAHRENHEIT                      <
>     RH     - RELATIVE HUMIDITY IN PERCENT                <
>     WIND   - DIRECTION AND SPEED IN MPH                  <
>     PRES   - MEAN SEA LEVEL PRESSURE IN INCHES OF HG     <
>     WCI    - WIND CHILL INDEX                            <
>     VSB    - VISIBILITY IN MILES                         <
>     HX     - HEAT INDEX                                  <
>     TC     - TEMPERATURE IN CELSIUS                      <
>     VRB    - VARIABLE WIND DIRECTION                     <
>                                                          <
>>>>>>>>>>>>>>>>>>>>>>>>>>>> KEY <<<<<<<<<<<<<<<<<<<<<<<<<<<




USA.gov is the U.S. government's official web portal to all federal, state and local government web resources and services.